Regional Weather Roundup
Issued by NWS

Home | Current Version | Previous Version | Text Only | Print | Product List | Glossary On
Versions: 1 2 3 4 5 6 7 8 9 10 11 12 13 14 15 16 17 18 19 20 21 22 23 24 25 26 27 28 29 30 31 32 33 34 35 36 37 38 39 40 41 42 43 44 45 46 47 48 49 50
000
ASUS43 KOAX 011102
RWRNE

WEATHER ROUNDUP FOR NEBRASKA
NATIONAL WEATHER SERVICE OMAHA NE
600 AM CDT FRI AUG 01 2014

NOTES: SATELLITE DATA IS BEING USED TO AUGMENT CLOUD COVER ABOVE
       12000 FEET.
       "FAIR" INDICATES FEW OR NO CLOUDS BELOW 12,000 FEET WITH NO
       SIGNIFICANT WEATHER AND/OR OBSTRUCTIONS TO VISIBILITY.

  * THESE STATIONS DO NOT REPORT WEATHER SUCH AS RAIN...SNOW OR FOG.

NEZ001>004-019>022-054>056-011200-
NEBRASKA PANHANDLE

CITY           SKY/WX    TMP DP  RH WIND       PRES   REMARKS
SCOTTSBLUFF    CLEAR     55  50  83 CALM      30.18S
ALLIANCE       CLEAR     50  44  80 CALM      30.17S
CHADRON        CLEAR     53  45  74 SW5       30.13S
SIDNEY         CLEAR     50  45  83 W7        30.19F
$$

NEZ057>060-069>072-079>082-011200-
SOUTHWEST NEBRASKA

CITY           SKY/WX    TMP DP  RH WIND       PRES   REMARKS
NORTH PLATTE   CLEAR     53  49  86 CALM      30.12F
IMPERIAL       CLEAR     59  53  80 CALM      30.14F
MCCOOK         CLEAR     56  54  93 NW6       30.11F
$$

NEZ005>010-023>029-035>040-094-011200-
NORTH CENTRAL NEBRASKA

CITY           SKY/WX    TMP DP  RH WIND       PRES   REMARKS
VALENTINE      CLEAR     54  53  97 CALM      30.10R
AINSWORTH      CLEAR     57  57 100 S5        30.11R FOG
BROKEN BOW     CLEAR     54  52  93 CALM      30.10R
ORD            CLEAR     56  55  97 N3        30.08R FOG
$$

NEZ041-046>049-061>064-073>077-083>087-011200-
SOUTH CENTRAL NEBRASKA

CITY           SKY/WX    TMP DP  RH WIND       PRES   REMARKS
GRAND ISLAND   CLEAR     58  56  93 NW6       30.07R
AURORA         CLEAR     59  59 100 N5        30.06R
HASTINGS       CLEAR     60  56  86 N6        30.06S
KEARNEY *      CLEAR     59  55  88 NW5       30.09R
YORK           CLEAR     55  55 100 N5        30.05R
$$

NEZ011>018-030>034-042>045-011200-
NORTHEAST NEBRASKA

CITY           SKY/WX    TMP DP  RH WIND       PRES   REMARKS
NORFOLK        FOG       56  54  93 CALM      30.07R VSB 1/2
ALBION         CLEAR     55  54  95 CALM      30.08S FOG
BLAIR          PTCLDY    62  59  89 E5        30.05S
COLUMBUS *     CLEAR     57  54  88 NE3       30.06S
FREMONT        CLEAR     65  61  87 E3        30.05S
TEKAMAH        CLEAR     60  57  89 N5        30.06R
$$

NEZ050>053-065>068-078-088>093-011200-
SOUTHEAST NEBRASKA

CITY           SKY/WX    TMP DP  RH WIND       PRES   REMARKS
LINCOLN        CLEAR     66  57  72 SE5       30.04R
OMAHA EPPLEY   PTCLDY    66  60  81 SE8       30.05S
BEATRICE       CLEAR     65  59  81 SE9       30.01F
FALLS CITY     CLOUDY    65  62  90 E5        30.05F
NEBRASKA CITY  CLOUDY    64  64  99 SE8       30.04F
PLATTSMOUTH    CLOUDY    64  62  91 SE6       30.04S
$$

NEZ044-045-051>053-067-011200-
OMAHA AREA

CITY           SKY/WX    TMP DP  RH WIND       PRES   REMARKS
OMAHA EPPLEY   PTCLDY    66  60  81 SE8       30.05S
BLAIR          PTCLDY    62  59  89 E5        30.05S
FREMONT        CLEAR     65  61  87 E3        30.05S
OFFUTT AFB     MOCLDY    65  65  99 SE7       30.04S
PLATTSMOUTH    CLOUDY    64  62  91 SE6       30.04S
WAHOO          FAIR      62  59  90 E3        30.05R
$$


USA.gov is the U.S. government's official web portal to all federal, state and local government web resources and services.